Retour au catalogue

FENGYUN 1C DEB

LostSSO
NORAD 37722·DEBRIS·🇨🇳 China

Lancé May 10, 1999 depuis Taiyuan Satellite Launch Center

Loading…

Prochains Passages (prochaines 24 heures)

TLE

PériméSource: Space-Track

Époque: Dec 15, 2015, 22:25 UTC

1 37722U 99025EMP 15349.93456858  .00003718  00000-0  60635-3 0  9998
2 37722  98.3105  33.9246 0167915  25.5965 335.4079 14.61976061300619

Suivez FENGYUN 1C DEB en temps réel avec AllMySat

Download on the App Store